EDT,Max TemperatureF,Mean TemperatureF,Min TemperatureF,Max Dew PointF,MeanDew PointF,Min DewpointF,Max Humidity, Mean Humidity, Min Humidity, Max Sea Level PressureIn, Mean Sea Level PressureIn, Min Sea Level PressureIn, Max VisibilityMiles, Mean VisibilityMiles, Min VisibilityMiles, Max Wind SpeedMPH, Mean Wind SpeedMPH, Max Gust SpeedMPH,PrecipitationIn, CloudCover, Events, WindDirDegrees
2013-9-1,90,83,77,77,73,70,93,74,55,30.00,29.96,29.92,10,10,10,14,5,17,0.00,2,Rain-Thunderstorm,184
2013-9-2,90,83,77,77,74,71,94,77,55,30.03,29.98,29.95,10,10,10,12,5,16,0.00,2,Thunderstorm,200
2013-9-3,91,84,77,76,74,70,90,76,53,30.04,29.98,29.95,10,10,10,9,3,,0.00,2,Thunderstorm,203
2013-9-4,91,83,75,76,74,69,94,77,49,30.10,30.04,29.98,10,10,1,28,4,44,0.53,2,Rain-Thunderstorm,69
2013-9-5,91,84,78,77,74,71,90,74,55,30.10,30.05,30.01,10,10,10,10,6,,0.03,1,Thunderstorm,50
2013-9-6,91,83,75,78,74,70,94,78,58,30.07,30.01,29.96,10,10,3,22,6,37,0.42,2,Rain-Thunderstorm,67
2013-9-7,89,81,73,74,72,68,93,75,50,30.04,29.99,29.93,10,10,10,14,7,21,0.00,1,Thunderstorm,38
2013-9-8,90,84,78,74,72,69,87,71,50,29.99,29.94,29.88,10,10,10,13,7,16,0.00,1,,43
2013-9-9,91,84,78,74,71,67,84,68,47,30.04,29.98,29.94,10,10,10,13,8,22,0.00,1,,71
2013-9-10,91,84,78,74,71,66,87,68,48,30.09,30.04,30.00,10,10,10,15,10,21,0.00,0,,71
2013-9-11,91,84,77,75,71,65,90,69,42,30.09,30.04,29.99,10,10,10,13,9,21,0.00,1,,86
2013-9-12,88,82,75,75,73,71,94,80,63,30.02,29.96,29.90,10,10,10,20,6,30,0.24,3,Rain-Thunderstorm,104
2013-9-13,88,80,73,75,73,72,97,80,62,29.92,29.88,29.83,10,10,10,13,3,,0.28,2,Rain-Thunderstorm,264
2013-9-14,90,82,75,76,74,71,96,75,55,29.98,29.91,29.85,10,10,10,9,2,,0.00,1,Thunderstorm,348
2013-9-15,93,83,75,77,73,68,90,77,52,30.08,30.02,29.97,10,10,10,30,7,40,0.01,1,Rain-Thunderstorm,92
2013-9-16,91,83,75,74,73,69,91,78,50,30.08,30.03,29.98,10,10,10,13,7,22,0.01,2,Rain-Thunderstorm,94
2013-9-17,91,83,75,74,72,71,91,76,52,30.06,30.01,29.95,10,10,10,15,7,21,0.00,1,Thunderstorm,79
2013-9-18,90,82,75,75,73,71,90,80,57,30.04,30.00,29.97,10,10,10,16,8,24,0.61,3,Rain-Thunderstorm,76
2013-9-19,89,82,75,75,73,72,94,82,59,30.06,30.01,29.97,10,10,10,14,8,20,0.61,4,Rain-Thunderstorm,101
2013-9-20,88,82,75,73,70,67,88,71,49,30.04,29.98,29.90,10,10,10,12,7,,0.01,2,,100
2013-9-21,88,80,73,74,70,67,85,70,51,29.94,29.86,29.79,10,10,10,10,7,,0.00,1,,170
2013-9-22,88,82,78,79,75,71,94,80,63,29.86,29.80,29.77,10,10,10,18,6,25,0.28,4,Rain,179
2013-9-23,82,78,75,78,76,73,96,91,84,29.96,29.91,29.84,10,9,1,18,7,23,0.84,6,Rain,143
2013-9-24,81,78,75,77,75,73,100,92,79,29.96,29.91,29.86,10,9,3,15,10,21,1.58,7,Rain-Thunderstorm,192
2013-9-25,81,76,71,77,73,70,100,91,76,29.93,29.86,29.81,10,8,2,21,10,29,1.60,5,Rain-Thunderstorm,251
2013-9-26,89,83,75,77,75,71,90,80,65,29.89,29.84,29.80,10,10,10,18,9,21,0.00,2,,294
2013-9-27,86,78,71,72,70,68,94,80,57,29.98,29.93,29.88,10,10,10,16,8,23,0.00,6,,30
2013-9-28,87,80,73,72,71,69,93,78,57,30.01,29.97,29.94,10,10,10,16,9,23,0.00,4,,50
2013-9-29,87,80,73,72,69,65,87,72,48,30.01,29.97,29.91,10,10,10,10,7,16,0.00,2,,42
2013-9-30,88,80,73,72,71,68,91,76,55,30.01,29.96,29.93,10,10,10,13,7,20,0.00,1,,76